Location: *
(46.3500°N, 10.9000°E)
Time: 22:30:54
(UTC+00:00)

A-11 Canister half - Pass Details

Date: 25 April 2021
Orbit: 1526 x 1682 km, 47.3° (Epoch: 13 May)

Event Time Altitude Azimuth Distance (km) Brightness Sun altitude
Rises 19:47:24 0° 293° (WNW) 4,936 13.3 -14.3°
Reaches altitude 10° 19:50:50 10° 286° (WNW) 3,949 12.3 -14.8°
Maximum altitude 19:59:52 38° 223° (SW) 2,360 10.0 -16.0°
Enters shadow 20:07:21 15° 164° (SSE) 3,513 10.4 -16.9°
Drops below altitude 10° 20:08:46 10° 160° (SSE) 3,893 - -17.1°
Sets 20:12:10 0° 152° (SSE) 4,859 - -17.6°
